sat.trackr.live / text

‹ back to catalog

STARLINK-31090

NORAD 58640 · 2023-203Y

PAYLOAD ACTIVE UNKNOWN

§ Identity

Operator
Country
US
Launch date
2023-12-23
Launch site
AFETR
Launch vehicle
Mass (kg)
RCS (m²)

Purposes: comms

External: N2YO · Heavens-Above · Gunter

§ Orbital elements

Epoch: 2026-05-24T22:50:22.108992Z

Period
94.27 min
Inclination
43.0054°
Eccentricity
0.0001047
Mean motion
15.27564994 rev/d
Perigee alt
482.4 km
Apogee alt
483.8 km
Semi-major
6,861.2 km
B*
-5.8500e-5
RAAN
348.7147°
Arg perigee
296.4448°
Mean anomaly
63.6296°
Rev number
13,532

§ Raw data

STARLINK-310901 58640U 23203Y   26144.95164478 -.00001871  00000+0 -58500-4 0  99942 58640  43.0054 348.7147 0001047 296.4448  63.6296 15.27564994135322

JSON: /api/v1/satellites/58640 · /tle

For live sub-satellite position, see the globe view (requires WebGL).

§ Visibility from observer

Set your observer location to see the next 7 days of passes ≥ 10°. The values pass through the URL so the page stays shareable.

No JS? Fill the form by hand. The geolocation button needs JavaScript.